User: anonymous   Login
Location: ????????
(54.9045°N, 39.1041°E)
Time: 12:20:38
(UTC+00:00)
Language:

NOSS 2-2 (E) - Orbit

View from above orbital plane
View from above orbital plane
View from above satellite
View from above satellite

Ground track
Ground track

The orbit data is extracted from the following two-line orbital elements,

1 21809U 91076E   24175.83996939  .00002392  00000-0  25316-3 0  9994
2 21809  63.3070 278.0178 0903607  61.2409 307.6355 13.48780958  6391
Epoch (UTC): 23 June 2024 20:09:33
Eccentricity: 0.0903607
inclination: 63.3070°
perigee height: 403 km
apogee height: 1750 km
right ascension of ascending node: 278.0178°
argument of perigee: 61.2409°
revolutions per day: 13.48780958
mean anomaly at epoch: 307.6355°
orbit number at epoch: 639

The dashed part of the orbit path shows where the satellite is in the earth's shadow,  

DLR